Location: Unspecified
(40.7945°N, 0.0000°E)
Time: 22:05:22
(UTC+00:00)

Vanguard 2 - Visible Passes

Search period start: 09 May 2021 00:00
Search period end: 19 May 2021 00:00
Orbit: 552 x 2938 km, 32.9° (Epoch: 09 May)

Date Brightness Start Highest point End Pass type
(mag) Time Alt. Az. Time Alt. Az. Time Alt. Az.
11 May 10.8 03:22:43 10° SSE 03:27:27 15° SE 03:33:13 10° ESE visible
12 May 10.5 03:38:06 10° S 03:44:23 20° SE 03:52:48 10° E visible
13 May 10.3 03:54:21 10° SSW 04:01:25 27° SE 04:11:34 10° E visible
14 May 10.2 04:11:01 10° SSW 04:18:34 34° SE 04:29:58 10° E visible
15 May 10.4 02:25:50 10° SSE 02:28:33 12° SE 02:31:39 10° ESE visible
16 May 10.1 02:41:29 12° S 02:45:31 18° SE 02:51:34 10° E visible
17 May 9.8 02:58:10 14° S 03:02:35 24° SE 03:10:21 10° E visible
18 May 9.7 03:14:52 15° SSW 03:19:46 30° SSE 03:28:43 10° E visible
